Location: *
(65.0000°S, 32.0000°W)
Time: 13:17:02
(UTC+00:00)

Daily predictions for brighter satellites

Satellite Brightness Start Highest point End
(mag) Time Altitude Azimuth Time Altitude Azimuth Time Altitude Azimuth
Cosmos 2322 Rocket 2.6 17:58:14 10° SW 18:03:57 74° NW 18:09:40 10° NE
SJ 16-02 1.5 18:00:01 10° NNW 18:04:32 77° ENE 18:09:04 10° SE
Cosmos 1934 Rocket 4.2 18:00:34 10° SSW 18:06:49 82° WNW 18:13:06 10° N
Cosmos 968 Rocket 4.5 18:06:23 10° W 18:11:17 35° SSW 18:16:12 10° SE
Cosmos 1544 Rocket 3.7 18:06:59 10° N 18:11:32 76° ENE 18:16:08 10° SSE
Cosmos 405 Rocket 3.2 18:08:45 10° N 18:12:18 41° E 18:15:56 10° SSE
Meteor 1-15 Rocket 4.5 18:06:30 10° NNW 18:12:28 89° ENE 18:18:33 10° SSE
Helios 1A Rocket 4.4 18:09:43 10° SE 18:12:50 20° E 18:15:56 10° NE
SL-16 R/B 2.9 18:07:49 10° SW 18:13:31 64° NW 18:19:10 10° NNE
H-2A R/B 2.5 18:10:02 10° SSE 18:14:01 57° ENE 18:17:52 10° N
Cosmos 1758 Rocket 3.6 18:10:02 10° SSW 18:14:30 82° ESE 18:18:54 10° NNE
Cosmos 2333 4.3 18:08:48 10° SW 18:14:40 71° SSE 18:20:31 10° ENE
ATLAS 2AS CENTAUR R/B 2.6 18:08:42 10° WNW 18:14:50 79° N 18:21:17 10° E
Cosmos 2173 Rocket 4.2 18:09:19 10° SSW 18:15:42 54° ESE 18:22:00 10° NE
Spot 2 4.4 18:11:12 10° SSE 18:16:10 88° ENE 18:20:46 10° NNW
ADEOS Rocket 4.2 18:10:32 10° E 18:16:28 31° SSE 18:22:50 10° SSW
Cosmos 2251 Rocket 3.7 18:11:41 10° SW 18:17:11 86° NW 18:22:36 10° NE
Cosmos 2082 Rocket 2.9 18:12:47 10° N 18:18:06 40° ENE 18:23:26 10° SE
Cosmos 2298 Rocket 4.3 18:14:19 10° NNW 18:19:38 62° ENE 18:24:59 10° SE
Cosmos 1455 Rocket 3.2 18:16:06 10° NNW 18:20:39 87° WSW 18:25:14 10° SSE
USA 129 3.0 18:18:47 10° N 18:21:03 50° WNW 18:23:28 10° SSW
ADEOS 3.7 18:16:08 10° SSE 18:21:29 74° ENE 18:26:46 10° NNW
Cosmos 1674 4.2 18:18:49 10° SSW 18:22:29 40° W 18:26:04 10° NNW
CZ-2D R/B 4.0 18:18:52 10° SSE 18:23:03 57° WSW 18:27:05 10° NW
Cosmos 2333 Rocket 2.3 18:17:54 10° SW 18:23:44 67° SSE 18:29:34 10° ENE
Cosmos 1805 3.3 18:22:00 10° N 18:25:57 67° ENE 18:29:57 10° SSE
Cosmos 1076 Rocket 4.5 18:22:51 10° S 18:26:40 27° SE 18:30:27 10° ENE
SKYMED 2 3.6 18:22:36 10° NNE 18:27:01 71° ESE 18:31:28 10° SSW
Cosmos 2150 Rocket 4.3 18:22:26 10° NNW 18:27:53 65° ENE 18:33:25 10° SE
Cosmos 1626 2.3 18:25:19 10° SSW 18:29:09 85° WNW 18:32:58 10° NNE
Cosmos 2151 4.5 18:26:18 10° S 18:29:18 18° SE 18:32:17 10° E
Cosmos 909 Rocket 4.2 18:22:20 10° W 18:29:31 83° S 18:35:52 10° E
Cosmos 2322 3.8 18:25:09 10° SW 18:30:59 84° SE 18:36:45 10° NE
SAR-Lupe-2 4.1 18:27:33 10° NE 18:31:00 39° ESE 18:34:29 10° SSW
Meteor 1-22 Rocket 4.5 18:26:45 10° N 18:32:52 69° ENE 18:38:56 10° SSE
Cosmos 1825 Rocket 3.8 18:29:54 10° SSW 18:34:23 79° WNW 18:38:48 10° N
Cosmos 1726 Rocket 4.5 18:30:58 10° NNE 18:34:57 31° E 18:38:57 10° SSE
Cosmos 2016 Rocket 4.1 18:30:29 10° SSW 18:36:34 53° ESE 18:42:39 10° NE
CZ-4B R/B 4.4 18:33:32 10° SSE 18:37:15 38° E 18:40:50 10° NNE
Cosmos 1605 Rocket 4.4 18:30:47 10° SSW 18:37:18 76° W 18:43:41 10° N
Cosmos 1470 3.4 18:36:06 10° NNE 18:39:50 39° E 18:43:39 10° SSE
Cosmos 1953 3.2 18:36:26 10° NNE 18:40:04 32° E 18:43:45 10° SSE
Cosmos 1484 Rocket 4.0 18:37:17 10° SE 18:40:31 23° E 18:43:39 10° NE
Cosmos 1937 Rocket 3.6 18:35:48 10° NW 18:41:05 78° SW 18:46:23 10° SE
Cosmos 1271 Rocket 3.2 18:38:04 10° SSW 18:41:42 37° ESE 18:45:18 10° NE
Cosmos 1733 3.3 18:38:19 10° N 18:42:08 60° ENE 18:46:01 10° SSE
Cosmos 2058 4.0 18:38:58 10° S 18:42:30 25° SE 18:46:03 10° ENE
CZ-2C R/B 4.1 18:41:33 11° ESE 18:45:18 20° SSE 18:49:16 10° SSW
Cosmos 372 Rocket 4.1 18:40:31 10° NNW 18:45:47 69° ENE 18:50:59 10° SE
Cosmos 1892 4.4 18:44:30 10° S 18:47:11 17° SE 18:49:13 12° ESE
Cosmos 1898 Rocket 3.8 18:44:07 10° WNW 18:49:22 64° SW 18:54:33 11° SE
CZ-4B R/B 3.4 18:45:33 10° SSE 18:50:00 55° ENE 18:54:32 10° N
RESURS DK-1 2.7 18:46:13 10° WNW 18:50:23 59° SSW 18:53:59 14° SE
Aureole 1 Rocket 3.4 18:48:05 10° SW 18:51:27 48° WNW 18:54:26 10° NNE
Cosmos 1328 3.9 18:47:38 10° SSW 18:51:46 63° ESE 18:55:51 10° NNE
Cosmos 1603 4.2 18:46:42 10° W 18:52:19 48° S 18:57:19 13° ESE
Cosmos 1725 Rocket 4.1 18:46:32 10° SSW 18:52:43 54° ESE 18:58:52 10° NE
IDEFIX/ARIANE 42P 2.7 18:47:35 10° SSE 18:53:01 86° ENE 18:58:23 10° NNW
USA 116 4.4 18:48:06 10° NNE 18:53:30 88° ESE 18:58:33 10° SSW
Cosmos 1606 Rocket 4.0 18:51:20 10° NNE 18:55:41 46° E 19:00:05 10° SSE
Genesis I 3.2 18:52:59 10° WNW 18:56:47 74° NNE 18:59:59 14° E
COSMOS 2487 4.3 18:56:42 10° NE 18:58:48 15° E 18:59:35 14° E
ADEOS II 3.2 18:53:50 10° SSE 18:58:51 41° SW 19:03:49 10° WNW
Resurs 1-4 Rocket 3.7 18:54:36 10° SSE 18:59:00 27° SW 19:03:23 10° W
SeaSat 1 3.2 18:55:54 13° ESE 18:59:55 39° S 19:04:33 10° WSW
COBE Rocket 3.9 18:55:47 10° NE 19:00:29 57° ESE 19:05:21 10° SSW
SJ-6F 4.5 18:57:44 10° SSE 19:02:01 71° ENE 19:06:17 10° N
MSX 3.9 18:56:27 10° SSE 19:02:21 76° ENE 19:08:10 10° NNW
Cosmos 2233 Rocket 4.2 18:56:45 10° SSW 19:02:48 47° ESE 19:08:50 10° NE
CRYOSAT 2 4.4 18:59:39 10° NNE 19:04:30 60° ESE 19:09:24 10° S
CZ-4C R/B 4.3 19:01:06 10° NE 19:04:45 14° ENE 19:07:22 12° E
SL-16 R/B 2.5 19:00:14 10° WSW 19:05:53 51° SSE 19:10:54 13° E
COSMOS 2406 3.4 19:01:54 10° NW 19:07:45 79° SW 19:12:47 14° SE
Cosmos 1238 Rocket 4.3 19:04:39 10° S 19:08:08 23° SE 19:12:09 10° ENE
COSMOS 2455 2.9 19:02:05 10° WSW 19:08:11 90° SSE 19:14:17 10° ENE
PSLV R/B 4.0 19:04:31 10° SSE 19:08:59 65° WSW 19:13:25 10° NW
Cosmos 1242 Rocket 3.3 19:05:55 10° S 19:09:10 30° SE 19:12:25 10° ENE
Cosmos 1758 3.4 19:05:08 10° N 19:09:17 68° E 19:13:25 10° SSE
Cosmos 1125 Rocket 3.6 19:06:13 10° NNW 19:11:34 71° ENE 19:16:22 13° SE
Cosmos 1703 3.2 19:07:47 10° SSW 19:11:53 75° ESE 19:15:56 10° NNE
Cosmos 1802 Rocket 4.1 19:05:51 10° SSW 19:12:19 82° ESE 19:18:49 10° NNE
SL-27 R/B 2.6 19:10:01 10° NNW 19:13:33 55° ENE 19:15:59 18° SE
Cosmos 1980 3.7 19:08:06 10° SW 19:13:50 67° SSE 19:19:33 10° ENE
Cosmos 676 Rocket 4.0 19:08:38 10° SW 19:13:55 63° SE 19:19:09 10° ENE
Cosmos 2360 Rocket 3.0 19:08:25 10° SW 19:14:02 56° NW 19:19:38 10° NNE
CZ-4B R/B 3.7 19:09:53 10° SSE 19:15:12 40° E 19:20:22 10° NNE
COSMO-SKYMED 1 3.3 19:10:50 10° N 19:15:13 59° WNW 19:19:38 10° SSW
Lacrosse 4 Rocket 1.4 19:11:15 10° WSW 19:15:31 79° SSE 19:19:47 11° ENE
Cosmos 1766 4.0 19:11:35 10° NW 19:15:34 54° WSW 19:19:33 10° SSE
Okean O Rocket 2.2 19:11:23 10° SSE 19:15:41 39° E 19:19:57 10° NNE
COSMOS 2428 2.8 19:10:32 10° SW 19:16:22 88° NW 19:22:09 10° NE
Cosmos 1727 Rocket 4.0 19:10:14 10° N 19:16:28 66° E 19:22:42 10° SSE
Cosmos 1339 Rocket 4.4 19:10:26 10° N 19:16:35 79° E 19:22:46 10° SSE
SMAP 4.4 19:15:20 17° ESE 19:16:36 19° E 19:19:56 10° NE
CZ-2C R/B 2.4 19:11:41 10° SSE 19:16:37 74° ENE 19:21:39 10° NNW
Cosmos 1140 Rocket 3.4 19:11:59 10° SW 19:17:14 69° SE 19:22:25 10° NE
Cosmos 2228 3.2 19:13:52 10° N 19:18:14 56° E 19:22:41 10° SSE
Cosmos 1943 3.7 19:13:36 10° WSW 19:19:08 47° S 19:23:13 18° ESE
Cosmos 614 Rocket 3.9 19:13:49 10° SW 19:19:08 80° SE 19:24:21 10° NE
Cosmos 2237 Rocket 2.2 19:14:12 10° SW 19:19:59 68° SSE 19:25:43 10° ENE
Cosmos 2061 Rocket 4.1 19:14:17 10° SSW 19:20:52 84° ESE 19:27:19 10° NNE
PAYLOAD A 3.9 19:16:26 10° SSE 19:21:25 88° ENE 19:26:13 10° NNW
NOSS 3-4 (A) 4.0 19:13:36 10° W 19:21:26 81° N 19:27:49 14° E
NOSS 3-4 (C) 4.0 19:13:41 10° W 19:21:32 81° N 19:27:54 14° E
Cosmos 1833 Rocket 2.7 19:16:14 10° NW 19:21:55 83° NE 19:26:30 16° SE
ALOS 3.0 19:18:59 10° SSE 19:23:20 33° E 19:27:38 10° NNE
NOSS 0 Rocket 4.0 19:17:17 10° SW 19:23:40 85° SE 19:30:01 10° NE
Cosmos 1954 Rocket 4.0 19:19:37 10° SW 19:24:53 66° SE 19:30:07 10° NE
Cosmos 1864 Rocket 4.4 19:19:35 10° SSW 19:25:54 74° ESE 19:32:06 10° NNE
Meteor 1-31 Rocket 2.8 19:22:33 10° SSE 19:26:39 89° ENE 19:30:41 10° NNW
Cosmos 1741 Rocket 4.3 19:21:43 10° SW 19:26:59 49° SSE 19:31:22 14° ENE
SJ-12 4.3 19:24:43 11° SSE 19:28:34 45° E 19:32:33 10° N
SL-08 R/B 4.5 19:24:33 10° SSW 19:31:03 81° ESE 19:37:23 10° NNE
Cosmos 407 Rocket 3.5 19:27:43 10° SW 19:32:57 85° NW 19:38:12 10° NE
CZ-2C R/B 3.7 19:28:20 10° NNE 19:33:03 73° ESE 19:37:43 10° SSW
Cosmos 1850 Rocket 4.2 19:29:33 10° SW 19:34:43 51° SE 19:38:53 16° ENE
FENGYUN 3A 4.1 19:32:04 10° SSE 19:37:16 41° E 19:42:26 10° NNE
ARIANE 5 R/B 4.2 19:33:20 10° SSE 19:37:44 28° SW 19:42:03 10° W
Cosmos 1825 3.9 19:34:58 10° S 19:37:09 18° SSE 19:37:09 18° SSE
CZ-2D R/B 4.0 19:33:59 10° SSE 19:37:55 21° SSW 19:41:47 10° WSW
Okean 3 Rocket 3.9 19:33:52 10° SSW 19:38:19 47° ESE 19:42:45 10° NE
Cosmos 1766 Rocket 4.0 19:34:28 10° SSW 19:38:48 40° ESE 19:43:03 10° NE
Cosmos 1408 Rocket 4.2 19:36:37 10° S 19:40:47 34° SE 19:43:21 19° ENE
Cosmos 2219 Rocket 2.4 19:35:12 10° SW 19:40:55 75° NW 19:46:38 10° NE
Cosmos 1459 Rocket 4.3 19:35:15 10° SSW 19:41:22 69° W 19:47:28 10° N
Meteor 1-16 Rocket 4.4 19:37:13 10° N 19:42:58 57° E 19:48:36 10° SSE
SJ 16-02 2.5 19:39:16 10° WNW 19:43:30 39° SSW 19:46:47 16° SSE
Cosmos 1190 Rocket 4.1 19:38:46 10° SW 19:44:08 81° NW 19:49:26 10° NNE
CZ-4B DEB 4.2 19:40:17 10° SSE 19:45:57 70° ENE 19:51:32 10° NNW
Cosmos 405 Rocket 3.8 19:44:45 10° NW 19:48:22 41° WSW 19:52:02 10° SSE
Helios 1A Rocket 2.9 19:44:43 12° SSE 19:48:39 82° ENE 19:52:49 10° NNW
H-2A R/B 3.8 19:45:45 10° SSE 19:49:27 35° SW 19:53:02 10° WNW
Cosmos 1726 2.5 19:46:22 10° NNE 19:50:00 42° E 19:51:40 26° SE
Meteor PRIRODA 3.8 19:47:42 11° SSE 19:51:17 76° WSW 19:55:02 10° NNW
Cosmos 2058 Rocket 3.0 19:47:47 10° N 19:52:19 72° ENE 19:56:51 10° SSE
Cosmos 968 Rocket 4.5 19:49:33 10° SW 19:54:23 33° S 19:56:42 24° SE
METEOR-M 4.2 19:54:11 10° SSE 19:59:35 56° ENE 20:04:55 10° N
ADEOS Rocket 3.5 19:54:10 10° NE 20:00:48 57° SE 20:08:07 10° SSW
Cosmos 2082 Rocket 2.3 19:56:06 10° NW 20:01:54 85° SW 20:05:39 23° SE
Cosmos 1908 3.5 19:58:33 10° N 20:02:21 45° E 20:03:44 31° SE
Cosmos 1464 Rocket 4.2 19:57:18 10° SSW 20:03:39 52° ESE 20:09:58 10° NE
Cosmos 1184 Rocket 2.7 20:00:20 10° NNW 20:03:41 74° ENE 20:05:04 33° SSE
Okean-O 3.5 20:04:38 29° ENE 20:04:38 29° ENE 20:08:08 10° NNE
Cosmos 1076 Rocket 3.6 20:00:16 10° SSW 20:04:42 85° WNW 20:09:08 10° NNE
ATLAS 2AS CENTAUR R/B 2.7 19:59:25 10° W 20:05:35 71° NNW 20:10:29 19° ENE
Cosmos 2151 3.1 20:03:19 10° SSW 20:07:35 53° ESE 20:10:54 16° NE
Cosmos 2333 Rocket 2.9 20:02:22 10° SW 20:08:06 59° NW 20:13:50 10° NNE
Meteor 2-10 4.1 20:03:28 10° N 20:08:47 56° E 20:13:30 12° SSE
PSLV R/B 4.4 20:05:32 10° SSE 20:09:44 62° WSW 20:13:50 10° NW
Cosmos 1726 Rocket 3.9 20:07:58 10° NNW 20:12:30 69° WSW 20:17:05 10° SSE
In-Cosmos 22 Rocket 4.0 20:08:24 10° SSW 20:13:55 74° ESE 20:19:19 10° NNE
Cosmos 1408 4.1 20:11:08 10° S 20:13:04 23° SSE 20:13:04 23° SSE
Cosmos 1484 Rocket 2.8 20:12:10 15° SSE 20:15:25 79° WSW 20:19:18 10° NNW
Cosmos 1470 3.8 20:12:01 10° NW 20:15:55 46° WSW 20:19:52 10° SSE
Cosmos 1953 2.9 20:12:16 10° NNW 20:16:19 58° WSW 20:20:13 11° SSE
Cosmos 1812 Rocket 3.7 20:12:24 10° N 20:16:39 49° E 20:18:23 31° SE
Cosmos 1271 Rocket 3.7 20:14:07 10° SSW 20:17:50 47° W 20:21:32 10° N
Cosmos 2058 2.9 20:15:45 10° SSW 20:20:00 89° WNW 20:24:15 10° NNE
Cosmos 1892 2.8 20:19:49 10° SSW 20:23:47 54° ESE 20:24:16 50° E
CZ-2C R/B 3.2 20:23:04 34° E 20:24:27 40° SE 20:29:39 10° SSW
Meteor 2-3 Rocket 4.1 20:19:37 10° SSW 20:25:04 44° SE 20:26:47 35° E
CZ-4B R/B 4.3 20:20:49 10° SSE 20:25:05 43° WSW 20:29:25 10° NW
Cosmos 2123 Rocket 4.0 20:20:43 10° N 20:27:05 70° E 20:33:28 10° SSE
Cosmos 1000 Rocket 4.5 20:22:24 10° NNW 20:28:39 88° WSW 20:34:59 10° SSE
RESURS DK-1 3.1 20:24:58 10° WSW 20:29:01 42° S 20:29:53 37° SSE
Cosmos 909 Rocket 4.2 20:23:09 10° WSW 20:29:53 75° NNW 20:33:53 24° NE
Mayak 1.1 20:32:03 12° SSE 20:32:03 12° SSE 20:32:56 10° S
Cosmos 1891 Rocket 4.5 20:25:10 10° SSW 20:31:28 66° ESE 20:37:52 10° NNE
GEOS 3 Rocket 3.7 20:29:26 37° E 20:31:36 72° NNE 20:36:57 10° WNW
IDEFIX/ARIANE 42P 4.0 20:27:26 10° SSE 20:32:16 35° SW 20:37:04 10° WNW
NOAA 6 4.0 20:27:19 10° SSE 20:32:39 89° ENE 20:37:56 10° NNW
COSMOS 2487 2.4 20:29:48 10° NNW 20:33:12 66° NE 20:33:12 66° NE
Genesis I 3.0 20:30:34 10° W 20:34:23 82° N 20:34:54 65° ENE
Cosmos 1500 Rocket 4.0 20:30:25 10° SSW 20:34:19 42° SE 20:34:19 42° SE
SeaSat 1 2.7 20:35:41 42° ESE 20:36:56 52° SSE 20:41:48 10° SW
Cosmos 1603 4.0 20:31:36 10° WSW 20:37:21 57° SSE 20:39:13 40° ESE
Resurs 1-4 Rocket 4.3 20:34:20 10° SSE 20:37:25 16° SSW 20:40:33 10° SW
ADEOS II 4.2 20:33:43 10° SSE 20:37:31 20° SSW 20:41:17 10° WSW
Blok-L 4.1 20:41:20 10° W 20:43:49 42° NW 20:43:49 42° NW
Cosmos 1242 Rocket 3.2 20:40:46 10° SSW 20:44:18 56° WNW 20:47:51 10° N
Radarsat Rocket 4.4 20:37:29 10° SSE 20:45:26 76° ENE 20:52:20 10° NNW
Cosmos 1238 Rocket 3.1 20:44:01 10° SSW 20:48:22 77° ESE 20:52:08 19° NNE
Cosmos 2233 Rocket 4.4 20:42:16 10° SSW 20:48:28 64° W 20:54:38 10° N
SL-27 R/B 3.6 20:45:28 10° WNW 20:48:51 38° SW 20:49:35 34° S
Timation 2 Rocket 4.4 20:44:45 10° N 20:50:07 38° ENE 20:50:07 38° ENE
SL-16 R/B 2.1 20:44:44 10° SW 20:50:33 87° SE 20:52:48 39° NE
CZ-4C R/B 3.3 20:45:10 10° NNW 20:51:50 35° NE 20:52:34 35° ENE
Okean O Rocket 2.2 20:48:32 15° SSE 20:52:16 58° WSW 20:56:44 10° NW
Cosmos 1513 Rocket 4.4 20:46:08 10° SSW 20:52:22 80° ESE 20:58:38 10° NNE
IRS-1C Rocket 4.0 20:48:07 15° SSE 20:52:36 81° ENE 20:57:58 10° NNW
COSMOS 2406 3.8 20:47:02 10° W 20:52:42 50° S 20:54:51 34° SE
Meteor 2-1 Rocket 4.3 20:47:42 10° N 20:53:06 49° E 20:53:32 48° E
COSMOS 2455 3.8 20:48:07 10° WSW 20:53:53 47° NW 20:59:16 12° NNE
Cosmos 1125 Rocket 4.3 20:48:45 10° WNW 20:53:59 49° SSW 20:56:39 27° SSE
Lacrosse 4 Rocket 2.5 20:50:02 10° WSW 20:54:06 44° NW 20:56:08 26° N
CZ-2C R/B 3.8 20:50:12 10° SSE 20:54:39 36° SW 20:59:13 10° WNW
SMAP 3.0 20:53:46 50° SE 20:54:51 67° ENE 20:59:33 10° N
Cosmos 1241 Rocket 4.4 20:48:35 10° WNW 20:54:54 89° NNE 20:57:09 44° ESE
Cosmos 2228 4.4 20:51:50 10° NW 20:56:02 39° WSW 21:00:11 11° S
CZ-4B R/B 3.5 20:50:31 10° SSE 20:56:09 69° WSW 21:01:38 10° NW
Cosmos 1980 4.3 20:52:22 10° SW 20:57:59 56° NW 21:02:29 16° NNE
COSMOS 2428 4.3 20:55:01 10° SW 21:00:11 35° WNW 21:05:20 10° N
ALOS 2.5 20:57:17 16° SSE 21:01:10 70° WSW 21:05:53 10° NNW
SJ-7 4.5 21:00:41 46° S 21:01:50 76° WSW 21:05:55 10° NNW
Cosmos 1943 3.3 20:58:24 10° WSW 21:04:03 58° SSE 21:05:02 51° ESE
Cosmos 2237 Rocket 2.8 20:58:27 10° SW 21:04:06 55° NW 21:08:14 18° NNE
Cosmos 1743 Rocket 3.6 20:59:29 10° SSW 21:03:47 66° SE 21:03:47 66° SE
Cosmos 1447 Rocket 4.4 20:57:58 10° N 21:04:07 69° E 21:10:20 10° SSE
Cosmos 1833 Rocket 3.2 21:00:41 10° W 21:06:15 54° SSW 21:08:12 37° SE
Feng Yun 1-1 Rocket 4.3 21:01:06 10° SSE 21:07:10 82° ENE 21:13:02 10° NNW
Thor Agena Rocket 3.7 21:09:18 56° ESE 21:09:24 57° ESE 21:14:41 10° SSW
Cosmos 1741 Rocket 4.2 21:04:05 10° SW 21:09:29 72° WNW 21:11:45 35° NNE
Cosmos 2285 Rocket 4.0 21:03:11 10° SW 21:09:45 73° SE 21:11:33 49° ENE
NOSS 3-4 (A) 4.1 21:04:45 10° WSW 21:12:16 64° NNW 21:15:16 36° NE
NOSS 3-4 (C) 4.1 21:04:50 10° WSW 21:12:22 64° NNW 21:15:21 36° NE
Cosmos 1825 3.9 21:10:10 10° SSW 21:11:59 26° S 21:11:59 26° S
CZ-2D R/B 4.3 21:14:26 13° SSE 21:16:23 15° S 21:19:18 10° SW
Cosmos 2279 Rocket 4.4 21:10:29 10° SSW 21:16:17 43° SE 21:16:17 43° SE
Cosmos 1766 Rocket 4.3 21:12:26 10° SSW 21:16:54 54° W 21:21:16 10° N
Cosmos 1850 Rocket 4.3 21:11:51 10° SW 21:17:06 65° WNW 21:19:13 35° N
FENGYUN 3A 4.0 21:12:29 10° SSE 21:17:57 67° WSW 21:23:24 10° NW
Cosmos 1408 Rocket 3.9 21:14:27 10° SSW 21:18:57 67° W 21:20:31 38° N
SJ 16-02 3.0 21:19:29 10° WSW 21:23:12 24° S 21:23:46 24° S
Cosmos 2219 Rocket 4.1 21:19:28 10° SW 21:24:13 28° WNW 21:28:59 10° NNW
Cosmos 1726 3.5 21:21:40 10° NW 21:25:18 40° WSW 21:26:13 34° SSW
MERIDIAN 1 4.4 21:22:52 10° NW 21:24:24 37° NNW 21:24:24 37° NNW
Cosmos 2034 Rocket 3.9 21:20:18 10° SSW 21:26:36 87° WNW 21:30:19 26° NNE
CORIOLIS 4.0 21:26:04 43° SSE 21:27:58 83° ENE 21:33:25 10° NNW
DMSP B5D2-2 4.2 21:28:27 40° N 21:30:26 77° WNW 21:35:51 10° SSW
Meteor 2-11 Rocket 4.3 21:30:00 10° SSW 21:36:15 82° ESE 21:37:21 62° NE
Cosmos 968 Rocket 3.9 21:31:58 10° SW 21:36:43 51° SSE 21:36:43 51° SSE
Cosmos 1486 Rocket 4.1 21:32:02 10° SW 21:37:05 66° SSE 21:37:05 66° SSE
Okean-O 3.3 21:42:12 50° NW 21:42:12 50° NW 21:45:35 10° NNW
Cosmos 2151 4.4 21:40:50 10° SSW 21:44:48 37° W 21:47:35 17° NNW
ADEOS Rocket 3.7 21:39:40 10° N 21:46:20 63° WNW 21:53:46 10° SSW
Cosmos 2082 Rocket 2.8 21:40:55 10° W 21:46:35 51° SSW 21:47:30 46° SSE
Cosmos 1503 Rocket 4.5 21:44:43 10° SW 21:49:03 51° S 21:49:03 51° S
ATLAS 2AS CENTAUR R/B 3.5 21:50:07 10° WSW 21:55:53 40° NW 21:57:56 32° N
Cosmos 1634 Rocket 3.9 21:49:36 10° SSW 21:56:05 80° ESE 21:56:14 79° E
Cosmos 1892 4.5 21:55:46 10° SSW 21:59:19 32° W 21:59:19 32° W
CZ-2C R/B 2.8 22:04:34 75° W 22:04:34 75° W 22:10:08 10° SSW
Mayak 1.4 22:08:37 14° S 22:08:37 14° S 22:09:15 10° S
RESURS DK-1 4.1 22:03:28 10° WSW 22:05:47 30° SW 22:05:47 30° SW
Meteor 2-3 Rocket 4.0 22:02:59 10° SSW 22:08:40 67° WNW 22:09:06 64° NW
Cosmos 1833 4.5 22:03:38 10° NW 22:08:19 62° NW 22:08:19 62° NW
GEOS 3 Rocket 3.9 22:10:32 69° W 22:10:32 69° W 22:15:14 10° W
SeaSat 1 3.0 22:15:27 55° WSW 22:15:27 55° WSW 22:19:26 10° SW
Resurs 1-4 Rocket 4.3 22:15:24 15° SSE 22:15:32 15° S 22:18:34 10° SSW
ADEOS II 4.4 22:14:14 13° SSE 22:15:36 14° S 22:18:23 10° SW
Cosmos 1603 4.0 22:16:01 10° SW 22:21:07 67° WSW 22:21:07 67° WSW
Okean O Rocket 4.0 22:25:59 16° S 22:27:58 21° SW 22:31:23 10° W
Lacrosse 4 Rocket 4.2 22:29:41 10° W 22:31:55 14° WNW 22:32:29 14° WNW
SMAP 4.4 22:32:14 38° WSW 22:32:14 38° WSW 22:36:25 10° WNW
SL-16 R/B 3.3 22:29:04 10° SW 22:34:20 38° WNW 22:34:43 37° NW
COSMOS 2406 4.0 22:32:15 10° WSW 22:36:55 46° SSW 22:36:55 46° SSW
ALOS 4.4 22:35:46 18° S 22:38:01 25° SW 22:41:51 10° W
CZ-4C R/B 3.3 22:32:33 10° NW 22:37:46 45° NW 22:37:46 45° NW
Cosmos 2237 Rocket 4.5 22:43:10 10° WSW 22:47:07 19° WNW 22:50:07 13° NW
Cosmos 1943 4.0 22:42:41 10° SW 22:46:51 48° WSW 22:46:51 48° WSW
Cosmos 1833 Rocket 3.7 22:45:35 10° WSW 22:49:54 41° SSW 22:49:54 41° SSW
CZ-2D R/B 4.3 22:55:45 17° S 22:55:45 17° S 22:58:15 10° SSW
SJ 16-02 3.9 22:59:15 10° SW 23:00:46 18° SSW 23:00:46 18° SSW
Cosmos 2082 Rocket 3.7 23:25:57 10° WSW 23:29:20 33° SW 23:29:20 33° SW
Resurs 1-4 Rocket 4.5 23:56:29 17° S 23:56:29 17° S 23:58:07 10° SSW
